Regional Weather Roundup
Issued by NWS

Home | Current Version | Previous Version | Text Only | Print | Product List | Glossary On
Versions: 1 2 3 4 5 6 7 8 9 10 11 12 13 14 15 16 17 18 19 20 21 22 23 24 25 26 27 28 29 30 31 32 33 34 35 36 37 38 39 40 41 42 43 44 45 46 47 48 49 50
453
ASUS43 KDMX 051203
RWRIA

WEATHER ROUNDUP FOR IOWA
NATIONAL WEATHER SERVICE DES MOINES IA
600 AM CST FRI FEB 05 2016

NOTE: "FAIR" INDICATES FEW OR NO CLOUDS BELOW 12,000 FEET WITH NO
SIGNIFICANT WEATHER AND/OR OBSTRUCTIONS TO VISIBILITY.

* - THESE STATIONS ARE NOT NWS STATIONS...THUS NOT UNDER NWS
QUALITY CONTROL.  THEY ALSO DO NOT REPORT WEATHER SUCH
AS PRECIPITATION OR FOG.

IAZ001>003-012>014-020>022-031>034-043>046-051300-
   NORTHWEST IOWA

CITY           SKY/WX    TMP DP  RH WIND       PRES   REMARKS
CARROLL *      CLOUDY     7   5  92 CALM      30.33S
CHEROKEE *     CLOUDY     5   3  92 CALM      30.31R
DENISON *      CLOUDY     7   7 100 CALM      30.31S
LE MARS *      CLOUDY     9   9 100 SW3       30.30S
ORANGE CITY *  CLEAR     12  12 100 CALM      30.27S
SHELDON *      PTCLDY    10   9  92 S8        30.26S WCI  -1
SIOUX CITY     CLOUDY     8   3  80 SE7       30.31R WCI  -3
6HR MIN TEMP:   7; 6HR MAX TEMP:  10;

SPENCER        CLOUDY     5  -1  76 SE3       30.29S
6HR MIN TEMP:   2; 6HR MAX TEMP:   9;

STORM LAKE *   CLEAR     12  12 100 SW8       30.29S WCI   1
$$

IAZ055>058-069>071-079>083-090>094-051300-
   SOUTHWEST IOWA

CITY           SKY/WX    TMP DP  RH WIND       PRES   REMARKS
ATLANTIC *     CLOUDY     9   5  85 CALM      30.35R
AUDUBON *      FOG        1  -2  85 CALM      30.34R VSB 1
CLARINDA *     PTCLDY    21  21 100 CALM      30.38S
COUNCIL BLFS * CLOUDY    18  18 100 SE7       30.33S FOG     WCI   8
CRESTON *      CLOUDY    18  14  86 CALM      30.36R
HARLAN  *      FOG        7   5  92 CALM      30.37S VSB<1/4
LAMONI         CLOUDY    20  14  77 CALM      30.36R
6HR MIN TEMP:  18; 6HR MAX TEMP:  23;

RED OAK *      CLOUDY    18  18 100 CALM      30.36S
SHENANDOAH *   PTCLDY    21  21 100 CALM      30.38R
$$

IAZ047>049-059>061-072>074-084-051300-
   CENTRAL IOWA

CITY           SKY/WX    TMP DP  RH WIND       PRES   REMARKS
AMES           PTCLDY    10   7  87 W3        30.36R
6HR MIN TEMP:   8; 6HR MAX TEMP:  16;

ANKENY *       CLOUDY    14  12  92 CALM      30.38R
BOONE *        CLOUDY    10   7  85 W6        30.34R FOG     WCI   1
CHARITON *     CLOUDY    18  16  93 CALM      30.36S
DES MOINES     CLOUDY    14  10  84 CALM      30.37R
6HR MIN TEMP:  14; 6HR MAX TEMP:  19;

GRINNELL*      CLOUDY    14  12  90 CALM      30.37R
KNOXVILLE *    CLEAR     18  12  79 CALM      30.36R
MARSHALLTOWN   PTCLDY     9   7  92 NW3       30.35R
6HR MIN TEMP:   7; 6HR MAX TEMP:  12;

NEWTON *       CLEAR     14  14 100 CALM      30.37R
PELLA *        PTCLDY    16  14  93 CALM      30.38R
$$

IAZ004>006-015-016-023>025-035-036-051300-
   NORTH CENTRAL IOWA

CITY           SKY/WX    TMP DP  RH WIND       PRES   REMARKS
ALGONA *       CLOUDY     9   7  92 S6        30.32R WCI  -1
CLARION *      CLOUDY     5   1  85 CALM      30.34R
ESTHERVILLE    CLOUDY     7   4  87 S8        30.29S WCI  -6
6HR MIN TEMP:   1; 6HR MAX TEMP:   7;

FORT DODGE *   CLOUDY     7   0  72 CALM      30.35R
MASON CITY     CLOUDY     3  -1  83 W3        30.35R
6HR MIN TEMP:   0; 6HR MAX TEMP:   5;

FOREST CITY *  CLOUDY     1  -2  85 CALM      30.33R
WEBSTER CITY * CLOUDY     5   1  85 CALM      30.33R
IOWA FALLS *     N/A      5   2  86 CALM      30.35R
$$

IAZ007>011-017>019-026>030-037>042-050>054-066-051300-
   NORTHEAST IOWA

CITY           SKY/WX    TMP DP  RH WIND       PRES   REMARKS
CEDAR RAPIDS   PTCLDY    15  12  88 NW7       30.36R WCI   5
6HR MIN TEMP:  15; 6HR MAX TEMP:  25;

CHARLES CITY * MOCLDY     3   0  85 NW5       30.35R WCI  -6
CLINTON *      CLOUDY    26  21  81 NW9       30.35R WCI  17
DECORAH *      CLOUDY     9   7  92 CALM      30.32R
DUBUQUE        CLOUDY    23  17  78 N6        30.32R WCI  16
6HR MIN TEMP:  23; 6HR MAX TEMP:  25;

MONTICELLO *   MOCLDY    18  14  86 W5        30.35R WCI  11
OELWEIN *      CLEAR      7   5  92 NW5       30.35R WCI  -2
WATERLOO       CLOUDY     2   0  91 CALM      30.36R
6HR MIN TEMP:   1; 6HR MAX TEMP:  15;

$$

IAZ064-065-067-068-078-051300-
   EAST CENTRAL IOWA

CITY           SKY/WX    TMP DP  RH WIND       PRES   REMARKS
DAVENPORT      CLOUDY    25  18  74 NW10      30.35R WCI  15
6HR MIN TEMP:  25; 6HR MAX TEMP:  27;

IOWA CITY      PTCLDY    17  13  84 NW3       30.39R
6HR MIN TEMP:  17; 6HR MAX TEMP:  27;

MT. PLEASANT * CLOUDY    22  19  89 NW5       30.38R WCI  16
MUSCATINE *    MOCLDY    21  18  86 W7        30.39R WCI  13
QUAD CITIES    CLOUDY    26  17  68 N8        30.35R WCI  18
6HR MIN TEMP:  26; 6HR MAX TEMP:  28;

$$

IAZ062-063-075>077-085>089-095>099-051300-
   SOUTHEAST IOWA

CITY           SKY/WX    TMP DP  RH WIND       PRES   REMARKS
BURLINGTON     CLOUDY    22  19  89 NW3       30.37R
6HR MIN TEMP:  22; 6HR MAX TEMP:  28;

FAIRFIELD *    CLOUDY    18  14  86 NW6       30.38R WCI   9
FORT MADISON * PTCLDY    19  18  93 W5        30.38S WCI  13
KEOKUK *       CLOUDY    23  19  86 CALM      30.38R
OSKALOOSA *      N/A     18  16  93 NW3       30.38R
OTTUMWA        CLOUDY    18  15  88 NW3       30.37S
6HR MIN TEMP:  16; 6HR MAX TEMP:  23;

WASHINGTON *   CLOUDY    19  16  86 NW7       30.39R WCI  10
$$

ABBREVIATIONS USED IN REMARKS
   TC - TEMPERATURES IN CELSIUS
  WCI - WIND CHILL INDEX
   HX - HEAT INDEX
  VSB - VISIBILITY
$$





USA.gov is the U.S. government's official web portal to all federal, state and local government web resources and services.